Regional Weather Roundup
Issued by NWS Kansas City/Pleasant Hill, MO

Home | Current Version | Previous Version | Graphics & Text | Print | Product List | Glossary Off
Versions: 1 2 3 4 5 6 7 8 9 10 11 12 13 14 15 16 17 18 19 20 21 22 23 24 25 26 27 28 29 30 31 32 33 34 35 36 37 38 39 40 41 42 43 44 45 46 47 48 49 50

000
ASUS43 KEAX 020904
RWREAX

WEATHER ROUNDUP FOR EASTERN KANSAS AND NORTHWEST MISSOURI
NATIONAL WEATHER SERVICE KANSAS CITY/PLEASANT HILL MO
400 AM CDT TUE SEP 02 2014

KSZ040-057-103>105-MOZ028-029-037-043-021000-
...KANSAS CITY METROPOLITAN AREA...

CITY           SKY/WX    TMP DP  RH WIND       PRES   REMARKS
K.C. INTL      MOCLDY    66  65  96 CALM      29.94R
K.C. DOWNTOWN  CLOUDY    71  69  93 N6        29.92R FOG
LEES SUMMIT    CLOUDY    69  68  96 N5        29.94R FOG
OLATHE - IXD   CLOUDY    69  68  96 N3        29.95R
OLATHE - OJC   CLOUDY    68  68 100 CALM      29.93R
LAWRENCE       CLOUDY   N/A N/A N/A N8        29.93  HAZE

$$

MOZ001>008-011>017-020>025-030>033-038>040-044>046-053-054-021000-
...NORTHERN AND CENTRAL MISSOURI...

CITY           SKY/WX    TMP DP  RH WIND       PRES   REMARKS
ST. JOSEPH     PTCLDY    63  62  97 CALM      29.94R
MOSBY          CLOUDY    68  68 100 CALM      29.93R
WHITEMAN AFB   MOCLDY    69  69  98 N6        29.92R
CLINTON        CLOUDY    72  72 100 CALM      29.91S
SEDALIA        CLOUDY    71  69  93 SE6       29.91R
WARSAW         NOT AVBL
MARSHALL       CLOUDY    73  73 100 CALM      29.94R
CHILLICOTHE      N/A     67  65  93 CALM      29.94S
MOBERLY        CLOUDY    68  64  88 W3        29.94R
KIRKSVILLE     FOG       67  66  97 CALM      29.93R VSB 1/2

$$

MOZ041-047>049-056>058-063>065-088>090-097-021000-
...EASTERN AND SOUTHERN MISSOURI...

CITY           SKY/WX    TMP DP  RH WIND       PRES   REMARKS
ST. LOUIS INTL TSTM      71  68  90 SE9       29.90F
SPIRIT OF STL  CLOUDY    69  67  93 SE3       29.88F
COLUMBIA       CLOUDY    69  68  96 SE8       29.90F
JEFFERSON CITY CLOUDY    70  68  93 CALM      29.90S
MEXICO         CLOUDY   N/A N/A N/A CALM      29.90S
ROLLA            N/A    N/A N/A N/A MISG      29.90F
OSAGE BEACH    CLOUDY    70  66  88 CALM      29.90S
SPRINGFIELD    LGT RAIN  69  64  84 S22       29.94S
BRANSON        CLOUDY    70  68  94 CALM      30.03R
NEVADA         CLOUDY    70  70 100 SE3       29.93R
JOPLIN         LGT RAIN  70  66  87 SW7       29.91R
WEST PLAINS    CLOUDY    75  71  87 SW9       29.97S

$$

IAZ060-094-KSZ022-034>040-054-083-096-NEZ052-066-093-021000-
...KANSAS...SOUTHEAST NEBRASKA AND IOWA...

CITY           SKY/WX    TMP DP  RH WIND       PRES   REMARKS
TOPEKA         MOCLDY    68  68 100 CALM      29.93F FOG
MANHATTAN      PTCLDY    66  65  96 CALM      29.95R
EMPORIA        CLOUDY    70  69  97 N7        29.92F
CHANUTE        CLOUDY    70  68  93 SW3       29.89F
WICHITA        CLOUDY    73  68  84 E12       29.88F
OMAHA          PTCLDY    61  57  87 NW3       29.93S
LINCOLN        CLEAR     58  55  90 N6        29.97R
FALLS CITY     CLEAR     61  59  93 CALM      29.91F
LAMONI         PTCLDY    63  62  97 NW3       29.91F
DES MOINES     CLOUDY    65  58  78 CALM      29.87F

$$



USA.gov is the U.S. government's official web portal to all federal, state and local government web resources and services.